Flag for U.S.A. Weather past 2 weeks in Las Cruces, New Mexico, U.S.A.

Now
35 °F

Clear.


Feels Like: 32 °F
Forecast: 32 / 58 °F
Wind: 3 mph from Northeast

Location: Las Cruces International

Current Time: Jan 26, 2015 at 4:06:02 AM

Latest Report: Jan 26, 2015 at 3:35 AM


Visibility: 10 mi

Pressure: 30.31 "Hg

Humidity: 75%

Dew point: 28 °F

Location of Las CrucesLocation

Historic Weather in Las Cruces — Graph

°F

Las Cruces temperature yesterday

Maximum temperature yesterday: 57 °F (at 3:55 PM)
Minimum temperature yesterday: 29 °F (at 6:15 AM)
Average temperature yesterday: 40 °F

Past Weeks' High & Low Weather Summary

 TemperatureHumidityPressure
High69 °F (Jan 19, 3:35 PM)100% (Jan 11, 5:15 AM)30.43 "Hg (Jan 11, 5:15 AM)
Low13 °F (Jan 23, 6:55 AM)19% (Jan 19, 3:35 PM)29.91 "Hg (Jan 21, 1:55 PM)
Average40 °F69%30.22 "Hg
* Reported Jan 11 2:35 AM — Jan 26 2:55 AM, Las Cruces, Weather by CustomWeather, © 2014

Note: Actual official high and low records may vary slightly from our data, if they occured in-between our weather recording intervals... More about our weather records

Advertising

Las Cruces weather history for previous 24 hours

 ConditionsComfort  
Time TempWeatherWind HumidityBarometerVisibility
2:55 AM
Jan 26
34 °FClear.3 mph80%30.31 "Hg10 mi
2:35 AM34 °FClear.No wind79%30.31 "Hg10 mi
2:15 AM34 °FClear.No wind81%30.31 "Hg10 mi
1:55 AM34 °FClear.3 mph82%30.31 "Hg10 mi
1:35 AM34 °FClear.5 mph83%30.32 "Hg10 mi
1:15 AM36 °FClear.3 mph77%30.32 "Hg10 mi
12:55 AM35 °FClear.3 mph80%30.32 "Hg10 mi
12:15 AM35 °FClear.6 mph81%30.30 "Hg10 mi
11:55 PM
Jan 25
35 °FClear.5 mph79%30.30 "Hg10 mi
11:35 PM37 °FClear.3 mph69%30.30 "Hg10 mi
11:15 PM42 °FClear.3 mph55%30.30 "Hg10 mi
10:55 PM42 °FClear.6 mph58%30.30 "Hg10 mi
10:35 PM40 °FClear.7 mph61%30.30 "Hg10 mi
10:15 PM39 °FClear.5 mph66%30.30 "Hg10 mi
9:55 PM40 °FClear.6 mph66%30.30 "Hg10 mi
9:35 PM37 °FClear.6 mph73%30.30 "Hg10 mi
9:15 PM38 °FClear.6 mph73%30.31 "Hg10 mi
8:55 PM38 °FClear.5 mph71%30.31 "Hg10 mi
8:15 PM39 °FClear.No wind71%30.30 "Hg10 mi
7:55 PM40 °FClear.3 mph71%30.30 "Hg10 mi
7:15 PM42 °FClear.No wind65%30.28 "Hg10 mi
6:55 PM42 °FClear.No wind69%30.26 "Hg10 mi
6:35 PM43 °FClear.No wind62%30.27 "Hg10 mi
6:15 PM45 °FClear.No wind60%30.26 "Hg10 mi
5:55 PM46 °FClear.No wind57%30.25 "Hg10 mi
5:15 PM53 °FSunny.No wind41%30.24 "Hg10 mi
4:55 PM54 °FSunny.No wind36%30.23 "Hg10 mi
4:35 PM55 °FSunny.No wind33%30.23 "Hg10 mi
4:15 PM56 °FSunny.No wind32%30.22 "Hg10 mi
3:55 PM57 °FSunny.3 mph32%30.23 "Hg10 mi
3:15 PM56 °FSunny.5 mph34%30.22 "Hg10 mi
2:15 PM55 °FSunny.3 mph35%30.24 "Hg10 mi
1:55 PM54 °FSunny.7 mph36%30.25 "Hg10 mi
1:35 PM54 °FSunny.3 mph32%30.25 "Hg10 mi
1:15 PM53 °FSunny.3 mph43%30.27 "Hg10 mi
12:55 PM52 °FSunny.No wind42%30.28 "Hg10 mi
12:35 PM50 °FSunny.No wind44%30.28 "Hg10 mi
12:15 PM49 °FSunny.5 mph46%30.29 "Hg10 mi
11:55 AM49 °FSunny.6 mph48%30.29 "Hg10 mi
11:35 AM48 °FSunny.9 mph46%30.30 "Hg10 mi
11:15 AM46 °FSunny.No wind51%30.31 "Hg10 mi
10:55 AM44 °FSunny.No wind53%30.31 "Hg10 mi
10:35 AM43 °FSunny.3 mph56%30.31 "Hg10 mi
10:15 AM41 °FSunny.5 mph61%30.31 "Hg10 mi
9:55 AM39 °FSunny.6 mph64%30.29 "Hg10 mi
9:35 AM39 °FSunny.6 mph65%30.28 "Hg10 mi
9:15 AM44 °FSunny.No wind50%30.27 "Hg10 mi
8:55 AM42 °FSunny.12 mph51%30.27 "Hg10 mi
8:15 AM36 °FSunny.7 mph66%30.26 "Hg10 mi
7:55 AM35 °FSunny.3 mph62%30.25 "Hg10 mi
7:35 AM35 °FSunny.8 mph62%30.24 "Hg10 mi
7:15 AM32 °FSunny.7 mph70%30.25 "Hg10 mi
6:55 AM32 °FClear.7 mph71%30.24 "Hg10 mi
6:15 AM29 °FClear.7 mph77%30.21 "Hg10 mi
5:55 AM30 °FClear.No wind76%30.21 "Hg10 mi
5:35 AM30 °FClear.7 mph75%30.21 "Hg10 mi
5:15 AM30 °FClear.3 mph75%30.21 "Hg10 mi
4:55 AM31 °FClear.7 mph73%30.21 "Hg10 mi
4:35 AM33 °FClear.6 mph69%30.21 "Hg10 mi
4:15 AM34 °FClear.8 mph69%30.22 "Hg10 mi
Weather by CustomWeather, © 2014

See weather overviewHow to use our weather pages